TimeEST,TemperatureF,Dew PointF,Humidity,Sea Level PressureIn,VisibilityMPH,Wind Direction,Wind SpeedMPH,Gust SpeedMPH,PrecipitationIn,Events,Conditions,WindDirDegrees,DateUTC
12:56 AM,39.0,30.0,70,29.76,-9999.0,South,17.3,28.8,N/A,,Unknown,190,2013-01-09 05:56:00
1:56 AM,39.0,28.9,67,29.74,-9999.0,SSW,8.1,18.4,N/A,,Unknown,210,2013-01-09 06:56:00
2:56 AM,37.9,28.9,70,29.75,-9999.0,SSW,5.8,-,N/A,,Unknown,200,2013-01-09 07:56:00
3:56 AM,37.0,28.9,73,29.74,-9999.0,South,6.9,-,N/A,,Unknown,180,2013-01-09 08:56:00
4:56 AM,37.0,28.9,73,29.73,-9999.0,South,4.6,-,N/A,,Unknown,190,2013-01-09 09:56:00
5:56 AM,37.0,28.0,70,29.73,-9999.0,Calm,Calm,-,N/A,,Unknown,0,2013-01-09 10:56:00
6:56 AM,37.9,26.1,62,29.73,-9999.0,WSW,4.6,-,N/A,,Unknown,250,2013-01-09 11:56:00
8:56 AM,36.0,24.1,62,29.78,-9999.0,SW,6.9,-,N/A,,Unknown,220,2013-01-09 13:56:00
9:56 AM,36.0,25.0,64,29.81,-9999.0,SW,9.2,-,N/A,,Unknown,220,2013-01-09 14:56:00
10:56 AM,37.0,24.1,59,29.82,-9999.0,WSW,5.8,-,N/A,,Unknown,250,2013-01-09 15:56:00
11:56 AM,37.0,23.0,57,29.83,-9999.0,WNW,12.7,19.6,N/A,,Unknown,290,2013-01-09 16:56:00
12:56 PM,35.1,27.0,72,29.87,-9999.0,WNW,9.2,-,0.01,,Unknown,290,2013-01-09 17:56:00
1:56 PM,35.1,21.9,59,29.92,-9999.0,WNW,16.1,29.9,N/A,,Unknown,300,2013-01-09 18:56:00
2:56 PM,35.1,21.0,57,29.97,-9999.0,WNW,12.7,20.7,N/A,,Unknown,290,2013-01-09 19:56:00
3:56 PM,36.0,21.0,55,30.04,-9999.0,WNW,8.1,19.6,N/A,,Unknown,290,2013-01-09 20:56:00
4:56 PM,36.0,21.0,55,30.10,-9999.0,West,9.2,18.4,N/A,,Unknown,280,2013-01-09 21:56:00
5:56 PM,36.0,21.0,55,30.16,-9999.0,West,10.4,19.6,N/A,,Unknown,280,2013-01-09 22:56:00
6:56 PM,36.0,21.9,57,30.23,-9999.0,WNW,10.4,19.6,N/A,,Unknown,290,2013-01-09 23:56:00
7:56 PM,35.1,21.9,59,30.27,-9999.0,WNW,15.0,21.9,N/A,,Unknown,290,2013-01-10 00:56:00
8:56 PM,35.1,21.9,59,30.31,-9999.0,WNW,11.5,17.3,N/A,,Unknown,300,2013-01-10 01:56:00
9:56 PM,34.0,21.0,59,30.34,-9999.0,Variable,4.6,-,N/A,,Unknown,0,2013-01-10 02:56:00
10:56 PM,34.0,21.0,59,30.38,-9999.0,SSW,5.8,-,N/A,,Unknown,210,2013-01-10 03:56:00
11:56 PM,33.1,21.0,61,30.41,-9999.0,West,6.9,-,N/A,,Unknown,270,2013-01-10 04:56:00